,,PA_Meas_PMT16A,,PR_Meas_QMR101_102,,RH_Meas_QMH101,,SR_Meas_QMS101,,TA_Meas_QMH101,,GenWind,,GenWind,
time,status,PA,status,PR,status,RH,status,SR,status,TA,status,DirAvg,status,SpdAvg,
2013-08-12, 07:12:04,VALID,916.234,VALID,0,VALID,87.1051,VALID,146.12,VALID,20.3074,VALID,122,VALID,0,
2013-08-12, 07:13:04,VALID,916.289,VALID,0,VALID,87.5244,VALID,128.285,VALID,20.4439,VALID,122,VALID,0,
2013-08-12, 07:24:04,VALID,916.511,VALID,0,VALID,88.9195,VALID,100.457,VALID,19.8978,VALID,301,VALID,0,
2013-08-12, 07:25:04,VALID,916.564,VALID,0,VALID,89.2397,VALID,101.102,VALID,19.8213,VALID,301,VALID,0,
2013-08-12, 07:26:04,VALID,916.581,VALID,0,VALID,89.5142,VALID,101.532,VALID,19.7613,VALID,301,VALID,0,
2013-08-12, 07:27:04,VALID,916.602,VALID,0,VALID,90.1698,VALID,101.854,VALID,19.7628,VALID,301,VALID,0,
2013-08-12, 07:29:04,VALID,916.646,VALID,0,VALID,90.1545,VALID,101.854,VALID,19.6248,VALID,300,VALID,0,
2013-08-12, 07:30:04,VALID,916.667,VALID,0,VALID,90.8178,VALID,100.995,VALID,19.6443,VALID,301,VALID,0,
2013-08-12, 07:31:04,VALID,916.708,VALID,0,VALID,91.2218,VALID,99.8128,VALID,19.6848,VALID,300,VALID,0,
2013-08-12, 07:32:04,VALID,916.7,VALID,0,VALID,91.3209,VALID,98.7384,VALID,19.6653,VALID,301,VALID,0,
2013-08-12, 07:33:04,VALID,916.717,VALID,0,VALID,90.955,VALID,99.3831,VALID,19.6248,VALID,300,VALID,0,
2013-08-12, 07:34:04,VALID,916.682,VALID,0,VALID,90.8864,VALID,99.9203,VALID,19.6848,VALID,300,VALID,0,
2013-08-12, 07:35:04,VALID,916.729,VALID,0,VALID,90.9855,VALID,98.7384,VALID,19.7043,VALID,300,VALID,0,
2013-08-12, 07:36:04,VALID,916.713,VALID,0,VALID,90.8178,VALID,98.2012,VALID,19.7043,VALID,300,VALID,0,
2013-08-12, 07:37:04,VALID,916.738,VALID,0,VALID,90.9016,VALID,99.0607,VALID,19.6638,VALID,301,VALID,0,
2013-08-12, 07:38:04,VALID,916.734,VALID,0,VALID,91.0846,VALID,101.102,VALID,19.7028,VALID,301,VALID,0,
2013-08-12, 07:39:04,VALID,916.753,VALID,0,VALID,91.4048,VALID,103.466,VALID,19.7823,VALID,301,VALID,0,
2013-08-12, 07:40:04,VALID,916.747,VALID,0,VALID,91.603,VALID,106.367,VALID,19.8603,VALID,301,VALID,0,
2013-08-12, 07:41:04,VALID,916.754,VALID,0,VALID,91.7097,VALID,109.268,VALID,19.8993,VALID,300,VALID,0,
2013-08-12, 07:42:04,VALID,916.797,VALID,0,VALID,91.7783,VALID,111.524,VALID,19.9758,VALID,301,VALID,0,
2013-08-12, 07:43:04,VALID,916.803,VALID,0,VALID,91.5953,VALID,114.425,VALID,20.0343,VALID,300,VALID,0,
2013-08-12, 07:44:04,VALID,916.806,VALID,0,VALID,91.298,VALID,118.508,VALID,20.1123,VALID,301,VALID,0,
2013-08-12, 07:45:04,VALID,916.834,VALID,0,VALID,90.6729,VALID,123.235,VALID,20.1724,VALID,300,VALID,0,
2013-08-12, 07:46:04,VALID,916.871,VALID,0,VALID,88.6908,VALID,127.425,VALID,20.1919,VALID,300,VALID,0,
2013-08-12, 07:47:04,VALID,916.889,VALID,0,VALID,88.2715,VALID,129.681,VALID,20.2684,VALID,300,VALID,0,
2013-08-12, 07:48:04,VALID,916.841,VALID,0,VALID,89.1559,VALID,129.789,VALID,20.3659,VALID,300,VALID,0,
2013-08-12, 07:49:04,VALID,916.898,VALID,0,VALID,89.5218,VALID,128.607,VALID,20.3854,VALID,301,VALID,0,
2013-08-12, 07:50:04,VALID,916.882,VALID,0,VALID,89.7429,VALID,126.888,VALID,20.4259,VALID,300,VALID,0,
2013-08-12, 07:51:04,VALID,916.909,VALID,0,VALID,90.0325,VALID,124.847,VALID,20.4259,VALID,301,VALID,0,
2013-08-12, 07:52:04,VALID,916.888,VALID,0,VALID,90.5509,VALID,122.483,VALID,20.4244,VALID,345,VALID,0,
2013-08-12, 07:53:04,VALID,916.938,VALID,0,VALID,90.6195,VALID,119.904,VALID,20.4244,VALID,347,VALID,0,
2013-08-12, 07:54:04,VALID,916.941,VALID,0,VALID,91.3361,VALID,117.111,VALID,20.4829,VALID,347,VALID,0,
2013-08-12, 07:55:04,VALID,916.97,VALID,0,VALID,91.1379,VALID,114.103,VALID,20.5219,VALID,347,VALID,0,
2013-08-12, 07:56:04,VALID,917.001,VALID,0,VALID,90.9626,VALID,111.739,VALID,20.5414,VALID,347,VALID,0,
2013-08-12, 07:57:04,VALID,916.998,VALID,0,VALID,88.1953,VALID,110.02,VALID,20.5024,VALID,347,VALID,0,
2013-08-12, 07:58:04,VALID,917.043,VALID,0,VALID,86.6477,VALID,108.516,VALID,20.5219,VALID,347,VALID,0,
2013-08-12, 07:59:04,VALID,917.057,VALID,0,VALID,85.9616,VALID,106.904,VALID,20.5999,VALID,347,VALID,0,
2013-08-12, 08:00:04,VALID,917.104,VALID,0,VALID,86.5791,VALID,105.185,VALID,20.6585,VALID,347,VALID,0,
2013-08-12, 08:01:04,VALID,917.101,VALID,0,VALID,85.7253,VALID,103.896,VALID,20.6585,VALID,347,VALID,0,
2013-08-12, 08:02:04,VALID,917.116,VALID,0,VALID,86.9527,VALID,102.069,VALID,20.6959,VALID,347,VALID,0,
2013-08-12, 08:03:04,VALID,917.139,VALID,0,VALID,86.9908,VALID,103.144,VALID,20.717,VALID,347,VALID,0,
2013-08-12, 08:04:04,VALID,917.16,VALID,0,VALID,85.6033,VALID,105.077,VALID,20.7381,VALID,347,VALID,0,
2013-08-12, 08:05:04,VALID,917.169,VALID,0,VALID,86.2056,VALID,104.325,VALID,20.7365,VALID,347,VALID,0,
2013-08-12, 08:06:04,VALID,917.205,VALID,0,VALID,86.3276,VALID,101.532,VALID,20.756,VALID,347,VALID,0,
2013-08-12, 08:07:04,VALID,917.22,VALID,0,VALID,86.5944,VALID,97.3417,VALID,20.7755,VALID,347,VALID,0,
2013-08-12, 08:08:04,VALID,917.249,VALID,0,VALID,87.4025,VALID,95.3003,VALID,20.834,VALID,347,VALID,0,
2013-08-12, 08:09:04,VALID,917.232,VALID,0,VALID,87.6007,VALID,95.1929,VALID,20.8535,VALID,347,VALID,0,
2013-08-12, 08:10:04,VALID,917.24,VALID,0,VALID,86.419,VALID,97.5566,VALID,20.9331,VALID,347,VALID,0,
2013-08-12, 08:11:04,VALID,917.205,VALID,0,VALID,86.1446,VALID,101.639,VALID,20.9706,VALID,347,VALID,0,
2013-08-12, 08:12:04,VALID,917.255,VALID,0,VALID,85.7253,VALID,106.904,VALID,21.0486,VALID,347,VALID,0,
2013-08-12, 08:13:04,VALID,917.207,VALID,0,VALID,85.8854,VALID,113.243,VALID,21.1266,VALID,347,VALID,0,
2013-08-12, 08:14:04,VALID,917.248,VALID,0,VALID,83.6899,VALID,118.83,VALID,21.1852,VALID,347,VALID,0,
2013-08-12, 08:15:04,VALID,917.273,VALID,0,VALID,84.5589,VALID,122.483,VALID,21.2632,VALID,347,VALID,0,
2013-08-12, 08:16:04,VALID,917.27,VALID,0,VALID,84.7571,VALID,123.772,VALID,21.3022,VALID,347,VALID,0,
2013-08-12, 08:17:04,VALID,917.278,VALID,0,VALID,82.371,VALID,124.417,VALID,21.3217,VALID,346,VALID,0,
2013-08-12, 08:18:04,VALID,917.267,VALID,0,VALID,81.3266,VALID,127.748,VALID,21.3998,VALID,346,VALID,0,
2013-08-12, 08:19:04,VALID,917.282,VALID,0,VALID,80.6481,VALID,131.615,VALID,21.4583,INVALID,360,VALID,0,
2013-08-12, 08:20:04,VALID,917.318,VALID,0,VALID,79.3064,VALID,135.698,VALID,21.4762,INVALID,360,VALID,0,
2013-08-12, 08:21:04,VALID,917.303,VALID,0,VALID,79.7638,VALID,138.062,VALID,21.5559,VALID,346,VALID,0,
2013-08-12, 08:22:04,VALID,917.315,VALID,0,VALID,77.7512,VALID,140.533,VALID,21.5737,INVALID,360,VALID,0,
2013-08-12, 08:23:04,VALID,917.292,VALID,0,VALID,77.0956,VALID,143.112,VALID,21.6534,VALID,346,VALID,0,
2013-08-12, 08:24:04,VALID,917.321,VALID,0,VALID,79.8705,VALID,145.583,VALID,21.7315,VALID,346,VALID,0,
2013-08-12, 08:25:04,VALID,917.326,VALID,0,VALID,81.3114,VALID,148.591,VALID,21.8095,VALID,346,VALID,0,
2013-08-12, 08:26:04,VALID,917.303,VALID,0,VALID,79.4665,VALID,152.566,VALID,21.8681,VALID,346,VALID,0,
2013-08-12, 08:27:04,VALID,917.337,VALID,0,VALID,79.6342,VALID,156.864,VALID,21.9054,VALID,346,VALID,0,
2013-08-12, 08:28:04,VALID,917.326,VALID,0,VALID,80.61,VALID,161.591,VALID,21.964,INVALID,360,VALID,0,
2013-08-12, 08:29:04,VALID,917.309,VALID,0,VALID,78.6737,VALID,165.997,VALID,22.003,VALID,346,VALID,0,
2013-08-12, 08:30:04,VALID,917.26,VALID,0,VALID,77.8275,VALID,169.864,VALID,22.003,INVALID,360,VALID,0,
2013-08-12, 08:31:04,VALID,917.314,VALID,0,VALID,79.6876,VALID,173.303,VALID,22.003,VALID,346,VALID,0,
2013-08-12, 08:32:04,VALID,917.302,VALID,0,VALID,82.1804,VALID,174.377,VALID,22.0047,VALID,346,VALID,0,
2013-08-12, 08:33:04,VALID,917.342,VALID,0,VALID,83.7127,VALID,172.98,VALID,21.9444,VALID,346,VALID,0,
2013-08-12, 08:34:04,VALID,917.329,VALID,0,VALID,82.5768,VALID,170.187,VALID,21.9249,VALID,346,VALID,0,
2013-08-12, 08:35:04,VALID,917.321,VALID,0,VALID,83.1029,VALID,166.211,VALID,21.9249,VALID,346,VALID,0,
2013-08-12, 08:36:04,VALID,917.325,VALID,0,VALID,83.0724,VALID,162.021,VALID,21.9266,VALID,346,VALID,0,
2013-08-12, 08:37:04,VALID,917.338,VALID,0,VALID,82.3481,VALID,158.153,VALID,21.7883,VALID,332,VALID,0,
2013-08-12, 08:38:04,VALID,917.357,VALID,0,VALID,83.8881,VALID,155.36,VALID,21.7688,VALID,332,VALID,0,
2013-08-12, 08:39:04,VALID,917.368,VALID,0,VALID,83.2096,VALID,153.748,VALID,21.7103,VALID,318,VALID,0,
2013-08-12, 08:40:04,VALID,917.427,VALID,0,VALID,84.8486,VALID,152.137,VALID,21.7315,VALID,318,VALID,0,
2013-08-12, 08:41:04,VALID,917.441,VALID,0,VALID,84.8715,VALID,149.88,VALID,21.7315,VALID,318,VALID,0,
2013-08-12, 08:42:04,VALID,917.426,VALID,0,VALID,84.5589,VALID,147.732,VALID,21.7688,VALID,318,VALID,0,
2013-08-12, 08:43:04,VALID,917.421,VALID,0,VALID,82.6302,VALID,147.409,VALID,21.7883,VALID,318,VALID,0,
2013-08-12, 08:44:04,VALID,917.484,VALID,0,VALID,83.5908,VALID,148.054,VALID,21.8079,VALID,318,VALID,0,
2013-08-12, 08:45:04,VALID,917.467,VALID,0,VALID,82.6759,VALID,149.558,VALID,21.8469,VALID,318,VALID,0,
2013-08-12, 08:46:04,VALID,917.496,VALID,0,VALID,82.0127,VALID,150.632,VALID,21.8664,VALID,318,VALID,0,
2013-08-12, 08:47:04,VALID,917.506,VALID,0,VALID,80.3661,VALID,151.707,VALID,21.8469,VALID,318,VALID,0,
2013-08-12, 08:48:04,VALID,917.495,VALID,0,VALID,79.1539,VALID,154.393,VALID,21.8452,VALID,318,VALID,0,
2013-08-12, 08:49:04,VALID,917.504,VALID,0,VALID,80.7548,VALID,156.757,VALID,21.9054,VALID,318,VALID,0,
2013-08-12, 08:50:04,VALID,917.541,VALID,0,VALID,80.7472,VALID,158.691,VALID,21.9038,VALID,318,VALID,0,
2013-08-12, 08:51:04,VALID,917.547,VALID,0,VALID,77.6445,VALID,156.112,VALID,21.9444,VALID,318,VALID,0,
2013-08-12, 08:52:04,VALID,917.539,VALID,0,VALID,78.4754,VALID,150.31,VALID,22.0013,VALID,318,VALID,0,
2013-08-12, 08:53:04,VALID,917.544,VALID,0,VALID,79.4665,VALID,149.666,VALID,22.1005,VALID,318,VALID,0,
2013-08-12, 08:54:04,VALID,917.542,VALID,0,VALID,79.192,VALID,149.343,VALID,22.1981,VALID,318,VALID,0,
2013-08-12, 08:55:04,VALID,917.54,VALID,0,VALID,79.2149,VALID,139.029,VALID,22.2957,VALID,318,VALID,0,
2013-08-12, 08:56:04,VALID,917.542,VALID,0,VALID,77.9571,VALID,136.45,VALID,22.3347,VALID,318,VALID,0,
2013-08-12, 08:57:04,VALID,917.519,VALID,0,VALID,76.9355,VALID,143.112,VALID,22.4128,VALID,318,VALID,0,
2013-08-12, 08:58:04,VALID,917.53,VALID,0,VALID,76.9355,VALID,148.913,VALID,22.5103,VALID,318,VALID,0,
2013-08-12, 08:59:04,VALID,917.573,VALID,0,VALID,77.2862,VALID,156.864,VALID,22.6079,VALID,318,VALID,0,
2013-08-12, 09:00:04,VALID,917.572,VALID,0,VALID,77.5378,VALID,159.12,VALID,22.647,VALID,318,VALID,0,
2013-08-12, 09:01:04,VALID,917.565,VALID,0,VALID,75.6929,VALID,165.782,VALID,22.6647,VALID,318,VALID,0,
2013-08-12, 09:02:04,VALID,917.556,VALID,0,VALID,75.0678,VALID,172.765,VALID,22.647,VALID,318,VALID,0,
2013-08-12, 09:03:04,VALID,917.585,VALID,0,VALID,74.6409,VALID,170.617,VALID,22.6257,VALID,318,VALID,0,
2013-08-12, 09:04:04,VALID,917.592,VALID,0,VALID,75.0754,VALID,163.203,VALID,22.6257,VALID,318,VALID,0,
2013-08-12, 09:05:04,VALID,918.644,VALID,0,VALID,77.8808,VALID,159.872,VALID,22.6452,VALID,318,VALID,0,
2013-08-12, 09:06:04,INVALID,924.79,VALID,0,VALID,79.619,VALID,157.724,VALID,22.6274,VALID,343,VALID,0,
2013-08-12, 09:07:04,INVALID,921.769,VALID,0,VALID,80.3965,VALID,155.36,VALID,22.5672,VALID,343,VALID,0,
2013-08-12, 09:08:04,VALID,920.349,VALID,0,VALID,77.614,VALID,154.5,VALID,22.5494,VALID,343,VALID,0,
2013-08-12, 09:09:04,VALID,921.963,VALID,0,VALID,78.2239,VALID,156.649,VALID,22.5281,VALID,343,VALID,0,
2013-08-12, 09:10:04,VALID,922.342,VALID,0,VALID,78.7804,VALID,151.062,VALID,22.5086,VALID,343,VALID,0,
2013-08-12, 09:11:04,VALID,923.502,VALID,0,VALID,78.4678,VALID,140.855,VALID,22.5477,VALID,343,VALID,0,
2013-08-12, 09:12:04,INVALID,919.092,VALID,0,VALID,78.0028,VALID,130.971,VALID,22.5281,VALID,343,VALID,0,
2013-08-12, 09:13:04,VALID,921.042,VALID,0,VALID,78.7423,VALID,122.053,VALID,22.5477,VALID,343,VALID,0,
2013-08-12, 09:14:04,INVALID,924.213,VALID,0,VALID,78.9633,VALID,120.549,VALID,22.5511,VALID,343,VALID,0,
2013-08-12, 09:15:04,INVALID,916.385,VALID,0,VALID,78.5059,VALID,126.243,VALID,22.5316,VALID,347,VALID,0,
2013-08-12, 09:16:04,INVALID,925.759,VALID,0,VALID,79.4284,VALID,131.723,VALID,22.4908,VALID,359,VALID,0,
2013-08-12, 09:17:04,VALID,919.426,VALID,0,VALID,77.2786,VALID,132.69,VALID,22.3754,VALID,10,VALID,0,
2013-08-12, 09:18:04,VALID,920.623,VALID,0,VALID,81.1284,VALID,133.12,VALID,22.2371,VALID,7,VALID,0,
2013-08-12, 09:19:04,VALID,918.734,VALID,0,VALID,83.0724,VALID,138.814,VALID,22.1786,VALID,3,VALID,0,
2013-08-12, 09:20:04,VALID,916.953,VALID,0,VALID,83.6441,VALID,152.029,VALID,22.1201,VALID,1,VALID,0,
2013-08-12, 09:21:04,VALID,917.277,VALID,0,VALID,84.3683,VALID,167.608,VALID,22.0827,VALID,359,VALID,0,
2013-08-12, 09:22:04,INVALID,920.083,VALID,0,VALID,83.7204,VALID,184.799,VALID,22.0225,VALID,11,VALID,0,
2013-08-12, 09:23:04,VALID,916.865,VALID,0,VALID,83.9338,VALID,200.163,VALID,22.003,VALID,9,VALID,0,
2013-08-12, 09:24:04,INVALID,919.019,VALID,0,VALID,84.2159,VALID,199.518,VALID,22.0225,VALID,9,VALID,0,
2013-08-12, 09:25:04,VALID,918.927,VALID,0,VALID,84.0939,VALID,198.229,VALID,22.0827,VALID,8,VALID,0,
2013-08-12, 09:26:04,VALID,920.438,VALID,0,VALID,83.4917,VALID,196.402,VALID,22.1005,VALID,3,VALID,0,
2013-08-12, 09:27:04,INVALID,917.584,VALID,0,VALID,83.3163,VALID,201.345,VALID,22.1591,VALID,3,VALID,0,
2013-08-12, 09:28:04,VALID,919.235,VALID,0,VALID,82.7141,VALID,224.659,VALID,22.2371,VALID,3,VALID,0,
2013-08-12, 09:29:04,INVALID,914.748,VALID,0,VALID,80.9607,VALID,249.693,VALID,22.3347,VALID,3,VALID,0,
2013-08-12, 09:30:04,VALID,918.957,VALID,0,VALID,80.6634,VALID,253.991,VALID,22.4501,VALID,3,VALID,0,
2013-08-12, 09:31:04,INVALID,916.885,VALID,0,VALID,77.3472,VALID,244.429,VALID,22.5689,VALID,3,VALID,0,
2013-08-12, 09:32:04,VALID,920.741,VALID,0,VALID,76.379,VALID,243.999,VALID,22.6682,VALID,3,VALID,0,
2013-08-12, 09:33:04,INVALID,916.915,VALID,0,VALID,77.1566,VALID,249.156,VALID,22.725,VALID,3,VALID,0,
2013-08-12, 09:34:04,VALID,917.781,VALID,0,VALID,77.3777,VALID,271.719,VALID,22.8634,VALID,9,VALID,0,
2013-08-12, 09:35:04,VALID,916.563,VALID,0,VALID,78.5517,VALID,285.471,VALID,22.8421,VALID,17,VALID,0,
2013-08-12, 09:36:04,VALID,917.682,VALID,0,VALID,77.797,VALID,293.744,VALID,22.7641,VALID,16,VALID,0,
2013-08-12, 09:37:04,VALID,917.646,VALID,0,VALID,78.8109,VALID,275.587,VALID,22.7445,VALID,20,VALID,0,
2013-08-12, 09:38:04,VALID,919.215,VALID,0,VALID,77.7512,VALID,276.231,VALID,22.7055,VALID,15,VALID,0,
2013-08-12, 09:39:04,VALID,917.679,VALID,0,VALID,78.1324,VALID,271.719,VALID,22.6665,VALID,352,VALID,0,
2013-08-12, 09:40:04,VALID,918.257,VALID,0,VALID,79.0548,VALID,258.933,VALID,22.6274,VALID,7,VALID,0,
2013-08-12, 09:41:04,VALID,918.998,VALID,0,VALID,78.384,VALID,261.512,VALID,22.5689,VALID,28,VALID,0,
2013-08-12, 09:42:04,VALID,918.25,VALID,0,VALID,77.2633,VALID,266.561,VALID,22.5494,VALID,24,VALID,0,
2013-08-12, 09:43:04,VALID,919.601,VALID,0,VALID,78.8795,VALID,259.041,VALID,22.5299,VALID,24,VALID,0,
2013-08-12, 09:44:04,VALID,917.7,VALID,0,VALID,78.5212,VALID,248.082,VALID,22.5103,VALID,354,VALID,0,
2013-08-12, 09:45:04,VALID,917.739,VALID,0,VALID,80.4347,VALID,261.834,VALID,22.5689,VALID,44,VALID,0,
2013-08-12, 09:46:04,VALID,917.742,VALID,0,VALID,79.7104,VALID,260.867,VALID,22.6843,VALID,306,VALID,0,
2013-08-12, 09:47:04,VALID,917.738,VALID,0,VALID,79.8553,VALID,249.693,VALID,22.8421,VALID,334,VALID,0,
2013-08-12, 09:48:04,VALID,917.777,VALID,0,VALID,78.5288,VALID,267.958,VALID,22.9007,VALID,348,VALID,0,
2013-08-12, 09:49:04,VALID,917.768,VALID,0,VALID,76.7525,VALID,303.844,VALID,22.9397,VALID,342,VALID,0,
2013-08-12, 09:50:04,VALID,917.751,VALID,0,VALID,74.3054,VALID,305.885,VALID,22.9592,VALID,342,VALID,0,
2013-08-12, 09:51:04,VALID,917.727,VALID,0,VALID,76.1579,VALID,636.052,VALID,22.9983,VALID,342,VALID,0,
2013-08-12, 09:52:04,VALID,917.713,VALID,0,VALID,76.8745,VALID,651.953,VALID,23.1154,VALID,5,VALID,0,
2013-08-12, 09:53:04,VALID,917.731,VALID,0,VALID,78.4983,VALID,588.455,VALID,23.2325,VALID,5,VALID,0,
2013-08-12, 09:54:04,VALID,917.756,VALID,0,VALID,74.9839,VALID,393.342,VALID,23.3869,VALID,26,VALID,0,
2013-08-12, 09:55:04,VALID,917.75,VALID,0,VALID,76.4247,VALID,423.103,VALID,23.5839,VALID,13,VALID,0,
2013-08-12, 09:56:04,VALID,917.747,VALID,0,VALID,76.1274,VALID,595.117,VALID,23.6602,VALID,270,VALID,0,
2013-08-12, 09:57:04,VALID,917.782,VALID,0,VALID,75.9902,VALID,756.601,VALID,23.8749,VALID,356,VALID,0,
2013-08-12, 09:58:04,VALID,917.74,VALID,0,VALID,74.1225,VALID,894.34,VALID,24.1482,VALID,30,VALID,0,
2013-08-12, 09:59:04,VALID,917.731,VALID,0,VALID,72.0489,VALID,699.334,VALID,24.4216,VALID,335,VALID,0,
2013-08-12, 10:00:04,VALID,917.733,VALID,0,VALID,71.7668,VALID,871.24,VALID,24.6577,VALID,8,VALID,0,
2013-08-12, 10:01:04,VALID,917.725,VALID,0,VALID,69.1673,VALID,869.629,VALID,24.6949,VALID,266,VALID,0,
2013-08-12, 10:02:04,VALID,917.731,VALID,0,VALID,69.1825,VALID,885.745,VALID,24.5973,VALID,285,VALID,0,
2013-08-12, 10:03:04,VALID,917.714,VALID,0,VALID,68.8623,VALID,658.399,VALID,24.4801,VALID,310,VALID,0,
2013-08-12, 10:04:04,VALID,917.671,VALID,0,VALID,70.4022,VALID,901.539,VALID,24.2263,VALID,272,VALID,0,
2013-08-12, 10:05:04,VALID,917.685,VALID,0,VALID,71.6906,VALID,921.63,VALID,24.363,VALID,287,VALID,0,
2013-08-12, 10:06:04,VALID,917.676,VALID,0,VALID,69.8534,VALID,926.573,VALID,24.6363,VALID,34,VALID,0,
2013-08-12, 10:07:04,VALID,917.636,VALID,0,VALID,72.6359,VALID,906.374,VALID,24.7535,VALID,6,VALID,0,
2013-08-12, 10:08:04,VALID,917.635,VALID,0,VALID,71.2256,VALID,857.38,VALID,24.8511,VALID,12,VALID,0,
2013-08-12, 10:09:04,VALID,917.637,VALID,0,VALID,71.2637,VALID,768.204,VALID,25.0269,VALID,313,VALID,0,
2013-08-12, 10:10:04,VALID,917.635,VALID,0,VALID,66.4457,VALID,913.142,VALID,25.1069,VALID,255,VALID,0,
2013-08-12, 10:11:04,VALID,917.638,VALID,0,VALID,67.6807,VALID,973.417,VALID,24.9878,VALID,242,VALID,0,
2013-08-12, 10:12:04,VALID,917.672,VALID,0,VALID,68.1762,VALID,507.445,VALID,25.1441,VALID,309,VALID,0,
2013-08-12, 10:13:04,VALID,917.657,VALID,0,VALID,67.9018,VALID,923.027,VALID,25.105,VALID,280,VALID,0,
2013-08-12, 10:14:04,VALID,917.651,VALID,0,VALID,68.3211,VALID,718.352,VALID,25.0288,VALID,287,VALID,0,
2013-08-12, 10:15:04,VALID,917.665,VALID,0,VALID,70.852,VALID,705.351,VALID,25.1245,VALID,166,VALID,0,
2013-08-12, 10:16:04,VALID,917.64,VALID,0,VALID,69.8762,VALID,650.341,VALID,25.3784,VALID,205,VALID,0,
2013-08-12, 10:17:04,VALID,917.672,VALID,0,VALID,66.8421,VALID,554.611,VALID,25.6538,VALID,320,VALID,0,
2013-08-12, 10:18:04,VALID,917.631,VALID,0,VALID,67.2843,VALID,398.392,VALID,25.6519,VALID,5,VALID,0,
2013-08-12, 10:19:04,VALID,917.663,VALID,0,VALID,68.2753,VALID,393.02,VALID,25.4956,VALID,36,VALID,0,
2013-08-12, 10:20:04,VALID,917.671,VALID,0,VALID,70.5547,VALID,382.598,VALID,25.4565,VALID,1,VALID,0,
2013-08-12, 10:21:04,VALID,917.661,VALID,0,VALID,68.6031,VALID,250.016,VALID,25.4175,VALID,328,VALID,0,
2013-08-12, 10:22:04,VALID,917.632,VALID,0,VALID,65.508,VALID,238.519,VALID,25.3198,VALID,340,VALID,0,
2013-08-12, 10:23:04,VALID,917.641,VALID,0,VALID,68.2143,VALID,234.437,VALID,25.2027,VALID,348,VALID,0,
2013-08-12, 10:24:04,VALID,917.592,VALID,0,VALID,70.6843,VALID,221.866,VALID,25.025,VALID,23,VALID,0,
2013-08-12, 10:25:04,VALID,917.561,VALID,0,VALID,72.613,VALID,212.733,VALID,24.9292,VALID,12,VALID,0,
2013-08-12, 10:26:04,VALID,917.572,VALID,0,VALID,72.9027,VALID,203.816,VALID,24.8688,VALID,7,VALID,0,
2013-08-12, 10:27:04,VALID,917.56,VALID,0,VALID,72.4911,VALID,204.675,VALID,24.7516,VALID,28,VALID,0,
2013-08-12, 10:28:04,VALID,917.604,VALID,0,VALID,73.1391,VALID,268.603,VALID,24.7535,VALID,22,VALID,0,
2013-08-12, 10:29:04,VALID,917.56,VALID,0,VALID,72.735,VALID,133.764,VALID,24.6754,VALID,18,VALID,0,
2013-08-12, 10:30:04,VALID,917.633,VALID,0,VALID,72.735,VALID,125.491,VALID,24.5582,VALID,16,VALID,0,
2013-08-12, 10:31:04,VALID,917.623,VALID,0,VALID,72.5139,VALID,127.855,VALID,24.402,VALID,242,VALID,0,
2013-08-12, 10:32:04,VALID,917.63,VALID,0,VALID,74.0386,VALID,130.648,VALID,24.244,VALID,242,VALID,0,
2013-08-12, 10:33:04,VALID,917.617,VALID,0,VALID,74.0081,VALID,130.326,VALID,24.0701,VALID,207,VALID,0,
2013-08-12, 10:34:04,VALID,917.614,VALID,0,VALID,73.848,VALID,129.574,VALID,23.8163,VALID,231,VALID,0,
2013-08-12, 10:35:04,VALID,917.616,VALID,0,VALID,74.8696,VALID,122.268,VALID,23.6406,VALID,231,VALID,0,
2013-08-12, 10:36:04,VALID,917.621,VALID,0,VALID,75.5252,VALID,114.317,VALID,23.6034,VALID,8,VALID,0,
2013-08-12, 10:37:04,VALID,917.544,VALID,0,VALID,73.7413,VALID,109.805,VALID,23.4437,VALID,357,VALID,0,
2013-08-12, 10:38:04,VALID,917.589,VALID,0,VALID,74.2749,VALID,103.896,VALID,23.3478,VALID,5,VALID,0,
2013-08-12, 10:39:04,VALID,917.591,VALID,0,VALID,74.4655,VALID,94.2259,VALID,23.1722,VALID,12,VALID,0,
2013-08-12, 10:40:04,VALID,917.599,VALID,0,VALID,74.618,VALID,86.5976,VALID,23.1136,VALID,8,VALID,0,
2013-08-12, 10:41:04,VALID,917.616,VALID,0,VALID,75.4489,VALID,88.3166,VALID,23.0356,VALID,2,VALID,0,
2013-08-12, 10:42:04,VALID,917.611,VALID,0,VALID,76.501,VALID,101.854,VALID,23.0356,VALID,6,VALID,0,
2013-08-12, 10:43:04,VALID,917.612,VALID,0,VALID,76.905,VALID,128.607,VALID,23.0373,VALID,8,VALID,0,
2013-08-12, 10:44:04,VALID,917.576,VALID,0,VALID,78.1705,VALID,175.344,VALID,23.016,VALID,8,VALID,0,
2013-08-12, 10:45:04,VALID,917.579,VALID,0,VALID,78.0104,VALID,269.892,VALID,22.9575,VALID,355,VALID,0,
2013-08-12, 10:46:04,VALID,917.567,VALID,0,VALID,77.6902,VALID,505.296,VALID,23.016,VALID,4,VALID,0,
2013-08-12, 10:47:04,VALID,917.538,VALID,0,VALID,76.9126,VALID,547.198,VALID,23.1544,VALID,4,VALID,0,
2013-08-12, 10:48:04,VALID,917.542,VALID,0,VALID,76.4781,VALID,526.677,VALID,23.3691,VALID,4,VALID,0,
2013-08-12, 10:49:04,VALID,917.531,VALID,0,VALID,77.5911,VALID,501.32,VALID,23.5626,VALID,9,VALID,0,
2013-08-12, 10:50:04,VALID,917.533,VALID,0,VALID,72.5597,VALID,353.696,VALID,23.7205,VALID,287,VALID,0,
2013-08-12, 10:51:04,VALID,917.573,VALID,0,VALID,74.6942,VALID,335.968,VALID,23.7791,VALID,287,VALID,0,
2013-08-12, 10:52:04,VALID,917.555,VALID,0,VALID,74.7095,VALID,366.912,VALID,23.8572,VALID,356,VALID,0,
2013-08-12, 10:53:04,VALID,917.558,VALID,0,VALID,74.1149,VALID,410.533,VALID,23.953,VALID,293,VALID,0,
2013-08-12, 10:54:04,VALID,917.55,VALID,0,VALID,72.5902,VALID,639.167,VALID,24.1092,VALID,37,VALID,0,
2013-08-12, 10:55:04,VALID,917.574,VALID,0,VALID,73.505,VALID,607.58,VALID,24.2263,VALID,354,VALID,0,
2013-08-12, 10:56:04,VALID,917.546,VALID,0,VALID,70.6614,VALID,569.331,VALID,24.3844,VALID,335,VALID,0,
2013-08-12, 10:57:04,VALID,917.548,VALID,0,VALID,71.7592,VALID,616.605,VALID,24.4234,VALID,6,VALID,0,
2013-08-12, 10:58:04,VALID,917.523,VALID,0,VALID,72.3081,VALID,552.247,VALID,24.5015,VALID,12,VALID,0,
2013-08-12, 10:59:04,VALID,917.481,VALID,0,VALID,73.3068,VALID,643.573,VALID,24.5973,VALID,24,VALID,0,
2013-08-12, 11:00:04,VALID,917.481,VALID,0,VALID,72.026,VALID,600.703,VALID,24.773,VALID,24,VALID,0,
2013-08-12, 11:01:04,VALID,917.486,VALID,0,VALID,70.8063,VALID,547.52,VALID,24.8492,VALID,279,VALID,0,
2013-08-12, 11:02:04,VALID,917.471,VALID,0,VALID,69.9143,VALID,510.668,VALID,24.9469,VALID,322,VALID,0,
2013-08-12, 11:03:04,VALID,917.469,VALID,0,VALID,71.9346,VALID,388.292,VALID,24.9859,VALID,10,VALID,0,
2013-08-12, 11:04:04,VALID,917.452,VALID,0,VALID,69.0072,VALID,382.061,VALID,24.9469,VALID,258,VALID,0,
2013-08-12, 11:05:04,VALID,917.444,VALID,0,VALID,69.4569,VALID,399.359,VALID,24.8297,VALID,258,VALID,0,
2013-08-12, 11:06:04,VALID,917.426,VALID,0,VALID,70.9588,VALID,527.858,VALID,24.7907,VALID,258,VALID,0,
2013-08-12, 11:07:04,VALID,917.438,VALID,0,VALID,69.5332,VALID,341.663,VALID,24.7711,VALID,258,VALID,0,
2013-08-12, 11:08:04,VALID,917.44,VALID,0,VALID,69.9753,VALID,412.896,VALID,24.6149,VALID,295,VALID,0,
2013-08-12, 11:09:04,VALID,917.442,VALID,0,VALID,72.5368,VALID,323.183,VALID,24.5173,VALID,284,VALID,0,
2013-08-12, 11:10:04,VALID,917.411,VALID,0,VALID,71.378,VALID,320.712,VALID,24.4392,VALID,227,VALID,0,